Location: Unspecified
(0.0000°N, 0.0000°E)
Time: 03:47:10
(UTC+00:00)

Hubble Space Telescope - Pass Details

Date: 25 September 2022
Orbit: 531 x 535 km, 28.5° (Epoch: 25 September)

Event Time Altitude Azimuth Distance (km) Brightness Sun altitude
Exits shadow 04:52:52 11° 218° (SW) 1,693 3.0 -14.7°
Maximum altitude 04:53:35 12° 207° (SSW) 1,668 3.0 -14.5°
Drops below altitude 10° 04:55:06 10° 185° (S) 1,777 3.4 -14.2°
Sets 04:58:45 0° 152° (SSE) 2,668 4.7 -13.3°
